N9GF Weather Reports


Display with metric or nautical units.
time (UTC)temp
F
wind
direction
speed
MPH
gust
MPH
rain 1hr
in
rain 24hr
in
rain mn
in
humidity
%
barometer
mb
20260506023036 52 349 0.0 0.0 0.00 0.00 0.08 48 1006.7
20260506021528 53 349 0.0 0.0 0.00 0.00 0.08 47 1006.4
20260506020024 53 349 0.0 0.0 0.00 0.00 0.08 47 1006.5
20260506014519 53 349 0.0 0.0 0.00 0.00 0.08 44 1006.0
20260506013018 54 349 0.0 0.0 0.00 0.00 0.08 44 1005.9
20260506011511 54 348 0.0 0.0 0.00 0.00 0.08 42 1005.8
20260506010007 54 348 0.0 0.0 0.00 0.00 0.08 41 1005.5
20260506004503 54 348 0.0 0.0 0.00 0.00 0.08 40 1005.4
20260506003059 55 349 0.0 0.0 0.00 0.00 0.08 39 1005.2
20260506001556 55 331 1.0 0.0 0.00 0.00 0.08 39 1005.1
20260506000050 55 344 2.0 0.0 0.00 0.00 0.08 38 1005.3
20260505234608 55 348 0.0 0.0 0.00 0.00 0.08 38 1005.1
20260505233040 55 15 0.0 0.0 0.00 0.00 0.08 37 1005.2
20260505231537 56 360 0.0 0.0 0.00 0.00 0.08 37 1005.2
20260505230032 56 355 1.0 0.0 0.00 0.00 0.08 36 1005.2
20260505224531 56 333 1.0 0.0 0.00 0.00 0.08 35 1005.5
20260505223023 56 13 1.0 0.0 0.00 0.00 0.08 35 1005.4
20260505221519 56 360 1.0 0.0 0.00 0.00 0.08 36 1005.3
20260505220014 56 316 1.0 0.0 0.00 0.00 0.08 35 1005.5
20260505214510 56 355 1.0 0.0 0.00 0.00 0.08 36 1005.7
20260505213006 56 322 1.0 0.0 0.00 0.00 0.08 33 1005.6
20260505211502 56 335 1.0 0.0 0.00 0.00 0.08 32 1005.5
20260505210058 56 344 0.0 0.0 0.00 0.00 0.08 34 1005.6
20260505204552 56 324 1.0 0.0 0.00 0.00 0.08 33 1005.6
20260505203052 56 338 1.0 0.0 0.00 0.00 0.08 33 1005.7
20260505201544 56 360 1.0 0.0 0.00 0.00 0.08 33 1005.8
20260505200045 56 347 0.0 0.0 0.00 0.00 0.08 34 1005.9
20260505194538 56 345 1.0 0.0 0.00 0.00 0.08 35 1005.7
20260505193031 57 346 0.0 0.0 0.00 0.00 0.08 35 1005.9
20260505191527 56 5 1.0 0.0 0.00 0.00 0.08 36 1006.0
20260505190028 56 348 1.0 0.0 0.00 0.00 0.08 35 1006.1
20260505184525 57 10 1.0 0.0 0.00 0.00 0.08 36 1005.9
20260505183037 57 317 1.0 0.0 0.00 0.00 0.08 38 1006.0
20260505181511 57 327 1.0 0.0 0.00 0.00 0.08 38 1005.9
20260505180005 57 27 1.0 0.0 0.00 0.00 0.08 39 1005.9
20260505174601 57 344 1.0 0.0 0.00 0.00 0.08 38 1005.5
20260505173057 57 333 2.0 0.0 0.00 0.00 0.08 38 1005.7
20260505171552 57 323 1.0 0.0 0.00 0.00 0.08 40 1005.5
20260505170048 57 336 1.0 0.0 0.00 0.00 0.08 38 1005.4
20260505164543 57 319 2.0 0.0 0.00 0.00 0.08 40 1005.2
20260505163038 56 333 1.0 0.0 0.00 0.00 0.08 44 1005.8
20260505161535 55 329 1.0 0.0 0.00 0.00 0.08 42 1005.5
20260505153022 52 355 1.0 0.0 0.00 0.00 0.08 39 1005.0
20260505151517 51 355 0.0 0.0 0.00 0.00 0.08 31 1005.2
20260505140109 47 12 0.0 0.0 0.00 0.00 0.08 100 1005.8
20260505124534 47 349 0.0 0.0 0.00 0.00 0.04 4 1005.1
20260505123030 47 349 0.0 0.0 0.00 0.00 0.03 23 1005.1
20260505121526 48 349 0.0 0.0 0.00 0.00 0.02 37 1005.3
20260505120021 50 349 0.0 0.0 0.00 0.00 0.01 51 1005.7
20260505114518 50 344 0.0 0.0 0.00 0.00 0.01 52 1004.9
20260505113015 50 341 1.0 0.0 0.00 0.00 0.00 50 1004.6
20260505111513 51 348 1.0 0.0 0.00 0.00 0.00 48 1003.5
20260505101508 52 55 0.0 0.0 0.00 0.00 0.00 50 1002.2
20260505100005 53 327 0.0 0.0 0.00 0.00 0.00 49 1002.4
20260505094604 53 332 1.0 0.0 0.00 0.00 0.00 48 1002.7
20260505093102 54 61 0.0 0.0 0.00 0.00 0.00 45 1002.4
20260505091609 54 329 0.0 0.0 0.00 0.00 0.00 45 1002.4
20260505090053 55 67 1.0 0.0 0.00 0.00 0.00 44 1002.2
20260505084551 56 34 0.0 0.0 0.00 0.00 0.00 45 1001.5
20260505083046 56 35 1.0 0.0 0.00 0.00 0.00 45 1001.0
20260505081543 56 339 0.0 0.0 0.00 0.00 0.00 45 1000.2
20260505080040 56 360 1.0 0.0 0.00 0.00 0.00 45 1000.0
20260505074539 57 355 0.0 0.0 0.00 0.00 0.00 44 999.7
20260505073043 57 336 0.0 0.0 0.00 0.00 0.00 44 999.8
20260505071534 57 355 1.0 0.0 0.00 0.00 0.00 43 999.5
20260505070040 58 351 0.0 0.0 0.00 0.00 0.00 43 999.2
20260505064533 58 5 0.0 0.0 0.00 0.00 0.00 43 999.1
20260505063030 58 348 0.0 0.0 0.00 0.00 0.00 43 999.0
20260505061537 58 355 0.0 0.0 0.00 0.00 0.00 43 998.7
20260505060028 59 360 0.0 0.0 0.00 0.00 0.00 43 998.9
20260505054534 59 360 0.0 0.0 0.00 0.00 0.00 42 998.8
20260505053024 59 342 0.0 0.0 0.00 0.00 0.00 41 998.9
20260505051524 60 342 0.0 0.0 0.00 0.00 0.00 40 998.5
20260505041505 61 333 0.0 0.0 0.00 0.00 0.22 13 997.9
20260505040005 61 323 0.0 0.0 0.00 0.00 0.22 5 997.8
20260505034557 61 322 0.0 0.0 0.00 0.00 0.22 100 998.0
20260505033052 61 327 0.0 0.0 0.00 0.00 0.22 100 997.8
20260505031555 61 329 0.0 0.0 0.00 0.00 0.22 100 997.4
20260505030044 60 325 0.0 0.0 0.00 0.00 0.22 100 997.3
20260505024553 60 289 1.0 0.0 0.00 0.00 0.22 100 997.7